Flag for Germany Weather past 2 weeks in Biberach an der Riss, Baden-Württemberg, Germany

Now
37 °F

Chilly.


Feels Like: 35 °F
Forecast: 28 / 35 °F
Wind: 3 mph from Northwest

Location: Laupheim Airport

Current Time: Dec 25, 2014 at 9:51:23 AM

Latest Report: Dec 25, 2014 at 9:20 AM


Visibility: 6 mi

Pressure: 30.24 "Hg

Humidity: 93%

Dew point: 36 °F

Location of Biberach an der RissLocation

Historic Weather in Biberach an der Riss — Graph

°F

Biberach an der Riss temperature yesterday

Maximum temperature yesterday: 43 °F (at 1:20 PM)
Minimum temperature yesterday: 34 °F (at 2:20 AM)
Average temperature yesterday: 39 °F

Past Weeks' High & Low Weather Summary

 TemperatureHumidityPressure
High54 °F (Dec 23, 1:20 PM)100% (Dec 10, 10:20 PM)30.51 "Hg (Dec 10, 10:20 PM)
Low30 °F (Dec 13, 7:20 AM)41% (Dec 23, 1:20 PM)29.77 "Hg (Dec 12, 8:20 PM)
Average41 °F81%30.10 "Hg
* Reported Dec 10 8:20 AM — Dec 25 8:20 AM, Biberach an der Riss, Weather by CustomWeather, © 2014

Note: Actual official high and low records may vary slightly from our data, if they occured in-between our weather recording intervals... More about our weather records

Advertising

Biberach an der Riss weather history for previous 24 hours

 ConditionsComfort  
Time TempWeatherWind HumidityBarometerVisibility
8:20 AM
Dec 25
39 °FChilly.8 mph87%30.24 "Hg5 mi
7:20 AM43 °FQuite cool.10 mph87%30.21 "Hg5 mi
6:20 AM41 °FQuite cool.13 mph93%30.18 "Hg5 mi
5:20 AM43 °FQuite cool.14 mph87%30.18 "Hg5 mi
4:20 AM43 °FQuite cool.16 mph81%30.18 "Hg5 mi
3:20 AM43 °FQuite cool.16 mph81%30.18 "Hg6 mi
2:20 AM45 °FQuite cool.16 mph76%30.18 "Hg5 mi
1:20 AM45 °FQuite cool.15 mph71%30.18 "Hg6 mi
12:20 AM43 °FQuite cool.12 mph76%30.18 "Hg6 mi
11:20 PM
Dec 24
41 °FQuite cool.15 mph76%30.18 "Hg5 mi
10:20 PM41 °FQuite cool.13 mph76%30.21 "Hg6 mi
9:20 PM39 °FChilly.12 mph81%30.18 "Hg6 mi
8:20 PM41 °FQuite cool.17 mph76%30.18 "Hg5 mi
7:20 PM41 °FQuite cool.16 mph76%30.18 "Hg5 mi
6:20 PM41 °FQuite cool.14 mph81%30.18 "Hg5 mi
5:20 PM41 °FQuite cool.14 mph76%30.18 "Hg6 mi
4:20 PM43 °FQuite cool.16 mph71%30.18 "Hg6 mi
3:20 PM41 °FQuite cool.15 mph76%30.18 "Hg6 mi
2:20 PM41 °FQuite cool.15 mph76%30.21 "Hg6 mi
1:20 PM43 °FQuite cool.15 mph71%30.21 "Hg6 mi
12:20 PM41 °FQuite cool.14 mph76%30.24 "HgN/A
11:20 AM39 °FChilly.13 mph75%30.24 "HgN/A
10:20 AM37 °FChilly.12 mph81%30.24 "Hg6 mi
9:20 AM36 °FChilly.12 mph75%30.24 "Hg5 mi
Weather by CustomWeather, © 2014

See weather overviewHow to use our weather pages